This demonstration page uses our WeatherBlox Daily Observations layout. Learn more.

Hourly Observations for May 16, 2015

Temp ( °F °C ) Dew Point ( °F °C ) Humidity (%) Winds ( mph kmh ) Pressure ( in mb ) Visibility ( mi km ) Precip ( " mm )
12:15 am 00:15 Clear 66 19 63 17 88 88 SSE 22 35 29.65 1004 10 16.09344 0 0
12:35 am 00:35 Clear 66 19 63 17 88 88 SSE 22 35 29.65 1004 10 16.09344 0 0
12:55 am 00:55 Clear 66 19 63 17 88 88 SSE 18 30 29.65 1004 10 16.09344 0 0
1:15 am 01:15 Clear 66 19 63 17 88 88 SSE 16 26 29.65 1004 10 16.09344 0 0
1:35 am 01:35 Mostly Cloudy 66 19 63 17 88 88 S 9 15 29.65 1004 10 16.09344 0 0
1:55 am 01:55 Mostly Cloudy 64 18 59 15 83 83 S 17 28 29.65 1004 10 16.09344 0.01 0.254
2:15 am 02:15 Mostly Cloudy with Thunderstorms 63 17 57 14 83 83 S 20 31 29.65 1004 7 11.265408 0.02 0.508
2:35 am 02:35 Cloudy with Thunderstorms 61 16 55 13 83 83 S 25 41 29.68 1005 7 11.265408 0.05 1.27
2:55 am 02:55 Mostly Cloudy with Light Thunderstorms 61 16 55 13 83 83 SSE 15 24 29.68 1005 10 16.09344 0.06 1.524
3:15 am 03:15 Partly Cloudy with Nearby Thunderstorms 61 16 55 13 83 83 S 12 19 29.65 1004 10 16.09344 0 0
3:35 am 03:35 Partly Cloudy 63 17 59 15 88 88 S 10 17 29.62 1003 10 16.09344 0 0
3:55 am 03:55 Mostly Cloudy with Light Rain 63 17 59 15 88 88 SE 7 11 29.65 1004 10 16.09344 0 0
4:15 am 04:15 Mostly Cloudy 61 16 59 15 94 94 SSE 5 7 29.65 1004 10 16.09344 0.01 0.254
4:35 am 04:35 Partly Cloudy with Light Rain 63 17 61 16 94 94 SW 9 15 29.62 1003 10 16.09344 0.01 0.254
4:55 am 04:55 Clear 63 17 61 16 94 94 SSE 13 20 29.65 1004 10 16.09344 0.01 0.254
5:15 am 05:15 Partly Cloudy with Light Drizzle 63 17 61 16 94 94 SSE 7 11 29.62 1003 10 16.09344 0 0
5:35 am 05:35 Mostly Cloudy 63 17 61 16 94 94 SE 9 15 29.62 1003 10 16.09344 0 0
5:55 am 05:55 Partly Cloudy 63 17 61 16 94 94 SSE 12 19 29.62 1003 10 16.09344 0 0
6:15 am 06:15 Clear 63 17 59 15 88 88 SSE 12 19 29.62 1003 10 16.09344 0 0
6:35 am 06:35 Sunny 63 17 59 15 88 88 S 13 20 29.65 1004 10 16.09344 0 0
6:55 am 06:55 Sunny 63 17 59 15 88 88 S 14 22 29.65 1004 10 16.09344 0 0
7:15 am 07:15 Sunny 63 17 55 13 77 77 S 15 24 29.65 1004 10 16.09344 0 0
7:35 am 07:35 Sunny 61 16 55 13 83 83 SSW 12 19 29.68 1005 10 16.09344 0 0
7:55 am 07:55 Sunny 61 16 55 13 83 83 S 12 19 29.68 1005 10 16.09344 0 0
8:15 am 08:15 Sunny 61 16 55 13 83 83 SE 21 33 29.65 1004 10 16.09344 0.01 0.254
8:35 am 08:35 Sunny 63 17 54 12 73 73 SW 12 19 29.62 1003 10 16.09344 0.01 0.254
8:55 am 08:55 Sunny 63 17 54 12 73 73 SW 14 22 29.65 1004 10 16.09344 0.01 0.254
9:15 am 09:15 Sunny 63 17 55 13 77 77 SW 13 20 29.65 1004 10 16.09344 0 0
9:35 am 09:35 Sunny 63 17 55 13 77 77 SSW 16 26 29.65 1004 10 16.09344 0 0
9:55 am 09:55 Sunny 64 18 55 13 73 73 S 9 15 29.65 1004 10 16.09344 0 0
10:15 am 10:15 Sunny 66 19 54 12 64 64 S 12 19 29.65 1004 10 16.09344 0 0
10:35 am 10:35 Sunny 66 19 55 13 68 68 S 13 20 29.65 1004 10 16.09344 0 0
10:55 am 10:55 Sunny 66 19 55 13 68 68 S 16 26 29.65 1004 10 16.09344 0 0
11:15 am 11:15 Sunny 66 19 57 14 73 73 S 20 31 29.65 1004 10 16.09344 0 0
11:35 am 11:35 Sunny 66 19 55 13 68 68 S 17 28 29.65 1004 10 16.09344 0 0
11:55 am 11:55 Sunny 68 20 55 13 64 64 S 17 28 29.62 1003 10 16.09344 0 0
12:15 pm 12:15 Sunny 68 20 55 13 64 64 SSW 21 33 29.62 1003 10 16.09344 0 0
12:35 pm 12:35 Sunny 68 20 55 13 64 64 SSW 26 43 29.65 1004 10 16.09344 0 0
12:55 pm 12:55 Sunny 70 21 55 13 60 60 S 25 41 29.59 1002 10 16.09344 0 0
1:15 pm 13:15 Sunny 70 21 55 13 60 60 SSW 24 39 29.59 1002 10 16.09344 0 0
1:35 pm 13:35 Partly Cloudy 70 21 55 13 60 60 S 20 31 29.59 1002 10 16.09344 0 0
1:55 pm 13:55 Sunny 70 21 55 13 60 60 SSW 22 35 29.59 1002 10 16.09344 0 0
2:15 pm 14:15 Partly Cloudy 70 21 55 13 60 60 S 23 37 29.59 1002 10 16.09344 0 0
2:35 pm 14:35 Partly Cloudy 68 20 55 13 64 64 S 18 30 29.62 1003 10 16.09344 0 0
2:55 pm 14:55 Partly Cloudy 68 20 55 13 64 64 S 16 26 29.62 1003 10 16.09344 0 0
3:15 pm 15:15 Mostly Cloudy 68 20 57 14 69 69 S 21 33 29.62 1003 10 16.09344 0 0
3:35 pm 15:35 Partly Cloudy 68 20 55 13 64 64 S 22 35 29.62 1003 10 16.09344 0 0
3:55 pm 15:55 Sunny 68 20 55 13 64 64 S 23 37 29.62 1003 10 16.09344 0 0
4:15 pm 16:15 Sunny 68 20 55 13 64 64 S 21 33 29.62 1003 10 16.09344 0 0
4:35 pm 16:35 Sunny 68 20 55 13 64 64 S 25 41 29.62 1003 10 16.09344 0 0
4:55 pm 16:55 Sunny 68 20 54 12 60 60 SSE 25 41 29.62 1003 10 16.09344 0 0
5:15 pm 17:15 Sunny 70 21 54 12 57 57 SSE 24 39 29.56 1001 10 16.09344 0 0
5:35 pm 17:35 Sunny 68 20 55 13 64 64 SSE 22 35 29.56 1001 10 16.09344 0 0
5:55 pm 17:55 Sunny 68 20 54 12 60 60 SE 23 37 29.53 1000 10 16.09344 0 0
6:15 pm 18:15 Sunny 68 20 54 12 60 60 SE 25 41 29.56 1001 10 16.09344 0 0
6:35 pm 18:35 Sunny 68 20 54 12 60 60 SSE 21 33 29.53 1000 10 16.09344 0 0
6:55 pm 18:55 Sunny 68 20 54 12 60 60 SSE 18 30 29.53 1000 10 16.09344 0 0
7:15 pm 19:15 Sunny 66 19 52 11 60 60 S 24 39 29.59 1002 10 16.09344 0 0
7:35 pm 19:35 Sunny 66 19 54 12 64 64 S 16 26 29.62 1003 10 16.09344 0 0
7:55 pm 19:55 Mostly Cloudy 66 19 55 13 68 68 S 20 31 29.62 1003 10 16.09344 0 0
8:15 pm 20:15 Cloudy with Heavy Rain 63 17 52 11 68 68 W 23 37 29.65 1004 7 11.265408 0.04 1.016
8:35 pm 20:35 Cloudy with Rain 55 13 52 11 88 88 WSW 10 17 29.65 1004 5 8.04672 0.1 2.54
8:55 pm 20:55 Cloudy with Light Rain 55 13 52 11 88 88 WSW 6 9 29.65 1004 10 16.09344 0.12 3.048
9:15 pm 21:15 Mostly Cloudy 55 13 52 11 88 88 SSW 8 13 29.65 1004 10 16.09344 0 0
9:35 pm 21:35 Mostly Cloudy 55 13 52 11 88 88 SW 8 13 29.65 1004 10 16.09344 0 0
9:55 pm 21:55 Cloudy with Light Rain 55 13 52 11 88 88 SSW 10 17 29.71 1006 10 16.09344 0 0
10:15 pm 22:15 Cloudy 55 13 52 11 88 88 SSW 7 11 29.71 1006 10 16.09344 0 0
10:35 pm 22:35 Partly Cloudy with Light Drizzle 55 13 52 11 88 88 E 12 19 29.62 1003 10 16.09344 0 0
10:55 pm 22:55 Partly Cloudy 55 13 52 11 88 88 SE 5 7 29.59 1002 10 16.09344 0 0
11:15 pm 23:15 Partly Cloudy 55 13 52 11 88 88 ESE 7 11 29.59 1002 10 16.09344 0 0
11:35 pm 23:35 Partly Cloudy 55 13 52 11 88 88 NE 13 20 29.53 1000 10 16.09344 0 0
11:55 pm 23:55 Clear 55 13 50 10 82 82 SE 10 17 29.56 1001 10 16.09344 0 0

Powered by AerisWeather